| time (UTC) | temp F | wind direction | speed knots | gust knots | rain 1hr in | rain 24hr in | rain mn in | humidity % | barometer mb |
| 20260504041803 | 39 | 82 | 0.0 | 0.9 | 0.00 | 0.00 | 0.00 | 72 | 1019.8 |
| 20260504040903 | 39 | 57 | 0.0 | 0.9 | 0.00 | 0.00 | 0.00 | 72 | 1020.0 |
| 20260504040004 | 39 | 37 | 0.0 | 0.9 | 0.00 | 0.00 | 0.00 | 70 | 1020.0 |
| 20260504035403 | 39 | 45 | 0.0 | 0.9 | 0.00 | 0.00 | 0.00 | 71 | 1019.8 |
| 20260504034503 | 40 | 18 | 0.0 | 0.9 | 0.00 | 0.00 | 0.00 | 69 | 1019.8 |
| 20260504033603 | 40 | 40 | 0.0 | 0.9 | 0.00 | 0.00 | 0.00 | 69 | 1019.8 |
| 20260504032703 | 40 | 62 | 0.0 | 0.9 | 0.00 | 0.00 | 0.00 | 70 | 1019.6 |
| 20260504031803 | 41 | 54 | 0.0 | 0.9 | 0.00 | 0.00 | 0.00 | 69 | 1019.6 |
| 20260504030903 | 41 | 35 | 0.0 | 1.7 | 0.00 | 0.00 | 0.00 | 68 | 1019.5 |
| 20260504030003 | 41 | 36 | 0.0 | 0.9 | 0.00 | 0.00 | 0.00 | 67 | 1019.8 |
| 20260504025424 | 41 | 34 | 0.0 | 1.7 | 0.00 | 0.00 | 0.00 | 69 | 1019.8 |
| 20260504024503 | 41 | 26 | 1.7 | 3.5 | 0.00 | 0.00 | 0.00 | 67 | 1020.2 |
| 20260504023603 | 42 | 25 | 0.9 | 1.7 | 0.00 | 0.00 | 0.00 | 66 | 1020.0 |
| 20260504022724 | 42 | 25 | 0.0 | 0.9 | 0.00 | 0.00 | 0.00 | 66 | 1020.2 |
| 20260504021803 | 43 | 21 | 0.0 | 0.9 | 0.00 | 0.00 | 0.00 | 64 | 1020.0 |
| 20260504020924 | 43 | 34 | 0.0 | 1.7 | 0.00 | 0.00 | 0.00 | 64 | 1020.2 |
| 20260504020024 | 44 | 32 | 0.0 | 1.7 | 0.00 | 0.00 | 0.00 | 60 | 1020.0 |
| 20260504015403 | 44 | 56 | 0.0 | 0.9 | 0.00 | 0.00 | 0.00 | 60 | 1019.8 |
| 20260504014503 | 45 | 41 | 0.0 | 0.9 | 0.00 | 0.00 | 0.00 | 59 | 1019.5 |
| 20260504013603 | 46 | 15 | 0.0 | 1.7 | 0.00 | 0.00 | 0.00 | 57 | 1019.5 |
| 20260504012703 | 46 | 8 | 0.0 | 1.7 | 0.00 | 0.00 | 0.00 | 57 | 1019.5 |
| 20260504011803 | 47 | 33 | 0.0 | 5.2 | 0.00 | 0.00 | 0.00 | 55 | 1019.2 |
| 20260504010903 | 47 | 22 | 0.0 | 1.7 | 0.00 | 0.00 | 0.00 | 56 | 1019.4 |
| 20260504010003 | 48 | 25 | 0.0 | 1.7 | 0.00 | 0.00 | 0.00 | 54 | 1019.3 |
| 20260504005403 | 49 | 20 | 0.0 | 0.9 | 0.00 | 0.00 | 0.00 | 52 | 1019.3 |
| 20260504004524 | 50 | 0 | 0.0 | 0.0 | 0.00 | 0.00 | 0.00 | 48 | 1019.3 |
| 20260504003603 | 51 | 19 | 0.0 | 0.9 | 0.00 | 0.00 | 0.00 | 47 | 1019.0 |
| 20260504002703 | 52 | 19 | 0.0 | 0.9 | 0.00 | 0.00 | 0.00 | 46 | 1019.2 |
| 20260504001803 | 53 | 30 | 0.0 | 1.7 | 0.00 | 0.00 | 0.00 | 46 | 1019.2 |
| 20260504000903 | 53 | 26 | 0.9 | 2.6 | 0.00 | 0.00 | 0.00 | 43 | 1019.1 |
| 20260504000003 | 54 | 29 | 0.9 | 3.5 | 0.00 | 0.00 | 0.00 | 40 | 1019.1 |
| 20260503235403 | 55 | 30 | 0.0 | 1.7 | 0.00 | 0.00 | 0.00 | 40 | 1019.0 |
| 20260503234524 | 56 | 30 | 0.9 | 3.5 | 0.00 | 0.00 | 0.00 | 39 | 1019.1 |
| 20260503233603 | 57 | 14 | 0.9 | 2.6 | 0.00 | 0.00 | 0.00 | 37 | 1018.8 |
| 20260503232703 | 59 | 12 | 0.9 | 2.6 | 0.00 | 0.00 | 0.00 | 35 | 1018.8 |
| 20260503231803 | 60 | 23 | 0.9 | 3.5 | 0.00 | 0.00 | 0.00 | 34 | 1018.8 |
| 20260503230903 | 60 | 22 | 1.7 | 5.2 | 0.00 | 0.00 | 0.00 | 34 | 1018.9 |
| 20260503230003 | 61 | 29 | 0.9 | 6.1 | 0.00 | 0.00 | 0.00 | 34 | 1018.4 |
| 20260503225403 | 61 | 37 | 1.7 | 7.8 | 0.00 | 0.00 | 0.00 | 33 | 1018.7 |
| 20260503224524 | 63 | 353 | 0.9 | 5.2 | 0.00 | 0.00 | 0.00 | 32 | 1018.8 |
| 20260503223603 | 64 | 313 | 1.7 | 7.0 | 0.00 | 0.00 | 0.00 | 29 | 1018.4 |
| 20260503222703 | 65 | 305 | 1.7 | 5.2 | 0.00 | 0.00 | 0.00 | 29 | 1018.8 |
| 20260503221803 | 66 | 324 | 0.9 | 2.6 | 0.00 | 0.00 | 0.00 | 27 | 1018.7 |
| 20260503220903 | 66 | 255 | 0.9 | 3.5 | 0.00 | 0.00 | 0.00 | 27 | 1018.7 |
| 20260503220003 | 67 | 179 | 1.7 | 3.5 | 0.00 | 0.00 | 0.00 | 29 | 1018.8 |
| 20260503215403 | 67 | 141 | 0.9 | 3.5 | 0.00 | 0.00 | 0.00 | 29 | 1018.8 |
| 20260503214503 | 67 | 53 | 0.9 | 2.6 | 0.00 | 0.00 | 0.00 | 28 | 1018.7 |
| 20260503213603 | 66 | 339 | 1.7 | 6.1 | 0.00 | 0.00 | 0.00 | 30 | 1018.8 |
| 20260503212703 | 65 | 4 | 2.6 | 7.0 | 0.00 | 0.00 | 0.00 | 27 | 1018.9 |
| 20260503211824 | 66 | 11 | 1.7 | 6.1 | 0.00 | 0.00 | 0.00 | 31 | 1018.9 |
| 20260503210903 | 66 | 353 | 0.9 | 3.5 | 0.00 | 0.00 | 0.00 | 30 | 1018.9 |
| 20260503210003 | 66 | 24 | 1.7 | 7.8 | 0.00 | 0.00 | 0.00 | 29 | 1019.3 |
| 20260503205403 | 65 | 32 | 1.7 | 7.8 | 0.00 | 0.00 | 0.00 | 30 | 1019.2 |
| 20260503204503 | 66 | 10 | 1.7 | 5.2 | 0.00 | 0.00 | 0.00 | 29 | 1019.2 |
| 20260503203603 | 66 | 76 | 1.7 | 5.2 | 0.00 | 0.00 | 0.00 | 30 | 1019.3 |
| 20260503202703 | 66 | 294 | 0.9 | 6.1 | 0.00 | 0.00 | 0.00 | 27 | 1019.1 |
| 20260503201803 | 66 | 40 | 1.7 | 7.0 | 0.00 | 0.00 | 0.00 | 29 | 1019.2 |
| 20260503200903 | 66 | 333 | 1.7 | 5.2 | 0.00 | 0.00 | 0.00 | 31 | 1019.4 |
| 20260503200003 | 65 | 304 | 1.7 | 7.8 | 0.00 | 0.00 | 0.00 | 26 | 1019.5 |
| 20260503195403 | 64 | 331 | 1.7 | 7.8 | 0.00 | 0.00 | 0.00 | 26 | 1019.4 |
| 20260503194503 | 63 | 3 | 1.7 | 8.7 | 0.00 | 0.00 | 0.00 | 26 | 1019.4 |
| 20260503193603 | 63 | 7 | 1.7 | 7.8 | 0.00 | 0.00 | 0.00 | 33 | 1019.8 |
| 20260503192703 | 62 | 19 | 2.6 | 7.8 | 0.00 | 0.00 | 0.00 | 30 | 1019.6 |
| 20260503191803 | 63 | 42 | 2.6 | 7.8 | 0.00 | 0.00 | 0.00 | 26 | 1019.9 |
| 20260503190924 | 62 | 42 | 2.6 | 8.7 | 0.00 | 0.00 | 0.00 | 30 | 1019.8 |
| 20260503190003 | 62 | 24 | 1.7 | 7.0 | 0.00 | 0.00 | 0.00 | 26 | 1019.9 |
| 20260503185403 | 61 | 182 | 2.6 | 9.6 | 0.00 | 0.00 | 0.00 | 26 | 1020.0 |
| 20260503184503 | 61 | 180 | 2.6 | 11.3 | 0.00 | 0.00 | 0.00 | 28 | 1020.2 |
| 20260503183603 | 60 | 1 | 1.7 | 7.8 | 0.00 | 0.00 | 0.00 | 27 | 1020.2 |
| 20260503182703 | 59 | 325 | 2.6 | 7.8 | 0.00 | 0.00 | 0.00 | 28 | 1020.5 |
| 20260503181803 | 59 | 30 | 2.6 | 7.0 | 0.00 | 0.00 | 0.00 | 24 | 1020.8 |
| 20260503180903 | 59 | 5 | 1.7 | 5.2 | 0.00 | 0.00 | 0.00 | 36 | 1020.6 |
| 20260503180003 | 58 | 341 | 1.7 | 3.5 | 0.00 | 0.00 | 0.00 | 31 | 1020.9 |
| 20260503175403 | 58 | 1 | 1.7 | 7.8 | 0.00 | 0.00 | 0.00 | 31 | 1020.6 |
| 20260503174524 | 58 | 165 | 1.7 | 7.0 | 0.00 | 0.00 | 0.00 | 31 | 1020.8 |
| 20260503173603 | 58 | 188 | 1.7 | 5.2 | 0.00 | 0.00 | 0.00 | 34 | 1020.8 |
| 20260503172703 | 57 | 249 | 1.7 | 3.5 | 0.00 | 0.00 | 0.00 | 31 | 1020.9 |
| 20260503171824 | 56 | 343 | 1.7 | 8.7 | 0.00 | 0.00 | 0.00 | 33 | 1021.0 |
| 20260503170903 | 56 | 8 | 1.7 | 7.8 | 0.00 | 0.00 | 0.00 | 35 | 1021.2 |
| 20260503150924 | 49 | 47 | 1.7 | 7.0 | 0.00 | 0.00 | 0.00 | 39 | 1021.4 |
| 20260503130903 | 38 | 57 | 1.7 | 6.1 | 0.00 | 0.00 | 0.00 | 64 | 1020.6 |
| 20260503080903 | 35 | 55 | 0.9 | 3.5 | 0.00 | 0.00 | 0.00 | 81 | 1017.9 |
| 20260503072703 | 36 | 56 | 0.9 | 6.1 | 0.00 | 0.00 | 0.00 | 79 | 1018.0 |
| 20260503071803 | 36 | 50 | 0.9 | 3.5 | 0.00 | 0.00 | 0.00 | 78 | 1017.7 |
| 20260503070924 | 36 | 48 | 0.9 | 5.2 | 0.00 | 0.00 | 0.00 | 77 | 1017.7 |
| 20260503054503 | 37 | 54 | 0.9 | 3.5 | 0.00 | 0.00 | 0.00 | 75 | 1018.1 |
| 20260503053603 | 37 | 62 | 0.0 | 2.6 | 0.00 | 0.00 | 0.00 | 75 | 1017.7 |
| 20260503052703 | 37 | 77 | 0.9 | 3.5 | 0.00 | 0.00 | 0.00 | 73 | 1017.8 |
| 20260503051824 | 38 | 71 | 0.9 | 5.2 | 0.00 | 0.00 | 0.00 | 73 | 1017.8 |
| 20260503050924 | 38 | 25 | 0.9 | 2.6 | 0.00 | 0.00 | 0.00 | 72 | 1017.5 |
| 20260503050024 | 38 | 45 | 0.9 | 3.5 | 0.00 | 0.00 | 0.00 | 73 | 1017.7 |
| 20260503045403 | 38 | 28 | 0.9 | 5.2 | 0.00 | 0.00 | 0.00 | 73 | 1017.5 |
| 20260503044503 | 38 | 62 | 0.9 | 2.6 | 0.00 | 0.00 | 0.00 | 73 | 1017.4 |
| 20260503043603 | 38 | 4 | 0.0 | 2.6 | 0.00 | 0.00 | 0.00 | 72 | 1017.7 |
| 20260503042703 | 38 | 41 | 0.9 | 1.7 | 0.00 | 0.00 | 0.00 | 72 | 1017.7 |